Location: Banios
(43.0451°N, 0.2335°E)
Time: 13:09:50
(UTC+00:00)

CZ-2D R/B - Pass Details

Date: 25 January 2021
Orbit: 520 x 538 km, 97.4° (Epoch: 25 February)

Event Time Altitude Azimuth Distance (km) Brightness Sun altitude
Rises 06:48:10 0° 17° (NNE) 2,660 6.8 -6.3°
Reaches altitude 10° 06:50:19 10° 22° (NNE) 1,765 5.9 -6.0°
Maximum altitude 06:54:02 52° 100° (E) 657 4.3 -5.3°
Drops below altitude 10° 06:57:43 10° 177° (S) 1,749 6.2 -4.7°
Sets 06:59:51 0° 182° (S) 2,632 7.1 -4.4°
